Regional Weather Roundup
Issued by NWS

Home | Current Version | Previous Version | Text Only | Print | Product List | Glossary Off
Versions: 1 2 3 4 5 6 7 8 9 10 11 12 13 14 15 16 17 18 19 20 21 22 23 24 25 26 27 28 29 30 31 32 33 34 35 36 37 38 39 40 41 42 43 44 45 46 47 48 49 50

569
ASUS43 KLMK 292102
RWRKY
KENTUCKY REGIONAL WEATHER ROUNDUP
NATIONAL WEATHER SERVICE LOUISVILLE KY
500 PM EDT MON AUG 29 2016

NOTE "FAIR" INDICATES FEW OR NO CLOUDS BELOW 12,000 FEET
WITH NO SIGNIFICANT WEATHER AND/OR OBSTRUCTIONS TO VISIBILITY.

KYZ001>023-026-027-061>063-070>075-292200-
WESTERN AND SOUTH CENTRAL KENTUCKY

CITY           SKY/WX    TMP DP  RH WIND       PRES   REMARKS
PADUCAH        SUNNY     91  75  59 NE9       30.09F HX 101
HENDERSON      SUNNY     91  70  49 NE7       30.10F HX  97
OWENSBORO      SUNNY     91  74  57 NE7       30.12F HX 100
HOPKINSVILLE   NOT AVBL
BOWLING GREEN  MOSUNNY   90  74  59 NE6       30.11F HX  99
GLASGOW        MOSUNNY   88  72  58 NE6       30.11F HX  94
$$

KYZ024-025-028>034-038-045-046-053-292200-
NORTH CENTRAL KENTUCKY

CITY           SKY/WX    TMP DP  RH WIND       PRES   REMARKS
LOUISVILLE/SDF MOSUNNY   93  65  39 N5        30.12F HX  95
LOUISVILLE/LOU SUNNY     93  67  42 VRB6      30.13F HX  96
FORT KNOX      SUNNY     89  70  53 N6        30.12F HX  94
$$

KYZ035>037-039>044-047>052-055>060-089>105-292200-
NORTHEAST KENTUCKY

CITY           SKY/WX    TMP DP  RH WIND       PRES   REMARKS
LEXINGTON      MOSUNNY   87  71  58 NE6       30.15F HX  93
COVINGTON      MOSUNNY   86  72  62 E10       30.17F HX  92
FRANKFORT      MOSUNNY   77  70  79 N5        30.15F
$$

KYZ054-064>069-076>088-106>120-292200-
SOUTHEAST KENTUCKY

CITY           SKY/WX    TMP DP  RH WIND       PRES   REMARKS
JACKSON        TSTM      71  67  87 VRB6      30.18R VSB 1/2
LONDON         CLOUDY    87  69  54 NE7       30.14F HX  91
SOMERSET       PTSUNNY   82  70  65 NE8       30.14F
MIDDLESBORO    LGT RAIN  78  72  82 CALM      30.14S
MONTICELLO     MOCLDY   N/A N/A N/A N12G20    30.14F
$$





USA.gov is the U.S. government's official web portal to all federal, state and local government web resources and services.